[[{"header":{"parameterUnit":"m.s-1","parameterCategory":1,"la1":30.2991,"la2":30.254,"lo1":-89.0895,"lo2":-89.0444,"dy":0.0017,"dx":0.0017,"nx":28,"ny":28,"refTime":"2024-03-31T03:00:00:Z","depth":0,"parameterNumber":2,"parameterNumberName":"U-component_of_WINDS"},"data":[0,0,0,0,0,0,0,0,0,0,0,0,0,0,0,0,0,0,0,0,0,0,0,0,0,0,0,0,0,0,0,0,0,0,0,0,0,0,0,0,0,0,0,0,0,0,0,0,0,0,0,0,0,0,0,0,0,0,-2.4207,-2.4208,0,-2.423,-2.423,-2.4231,-2.4187,-2.4186,-2.4184,-2.4183,-2.4206,-2.4208,-2.421,0,0,0,0,0,0,0,0,0,0,0,0,0,-2.4128,-2.413,-2.4207,-2.4208,-2.4208,-2.423,-2.423,-2.4231,-2.4187,-2.4186,-2.4184,-2.4182,-2.4206,-2.4208,-2.4211,0,0,0,0,0,0,0,0,0,0,0,0,0,-2.4158,-2.4131,-2.4207,-2.4189,-2.4188,-2.423,-2.423,-2.4231,-2.4188,-2.4186,-2.4183,-2.4181,-2.4205,-2.4208,-2.4211,-2.4272,0,0,-2.422,-2.4221,0,0,0,0,0,0,0,0,-2.4156,-2.4161,-2.4191,-2.419,-2.4189,-2.4203,-2.4211,-2.4245,-2.4188,-2.4188,-2.4183,-2.418,-2.4207,-2.421,-2.4219,-2.4273,-2.4274,-2.422,-2.4222,-2.4223,-2.4224,0,0,0,0,0,0,0,-2.4154,-2.416,-2.4216,-2.4192,-2.419,-2.418,-2.4182,-2.4217,-2.4209,-2.4188,-2.4184,-2.4188,-2.4206,-2.4216,-2.4219,-2.4275,-2.422,-2.4223,-2.4224,-2.4226,-2.4381,-2.4383,0,0,0,0,0,0,-2.4154,-2.4158,-2.4216,-2.4217,-2.4167,-2.4183,-2.4185,-2.4201,-2.4209,-2.4208,-2.419,-2.4186,-2.4212,-2.4216,-2.422,-2.4291,-2.4223,-2.4226,-2.4228,-2.4379,-2.4381,-2.4384,0,0,0,0,0,0,-2.4153,-2.416,-2.4215,-2.4187,-2.4193,-2.4187,-2.4205,-2.4203,-2.4212,-2.421,-2.4209,-2.4201,-2.4211,-2.4216,-2.4259,-2.4291,-2.4227,-2.423,-2.4376,-2.4379,-2.4383,-2.4435,0,0,0,0,0,0,-2.4151,-2.416,-2.4182,-2.4188,-2.4195,-2.4254,-2.4207,-2.4205,-2.4218,-2.4213,-2.4221,-2.422,-2.4209,-2.4255,-2.4262,-2.4294,-2.4232,-2.4373,-2.4377,-2.4382,-2.4431,-2.444,-2.4448,0,0,0,0,0,-2.4148,-2.4196,-2.4184,-2.4191,-2.4223,-2.4255,-2.4259,-2.4246,-2.422,-2.4243,-2.4242,-2.422,-2.4288,-2.426,-2.4268,-2.4301,-2.4371,-2.4376,-2.4381,-2.4427,-2.4438,-2.4448,0,0,0,0,0,0,-2.4195,-2.4197,-2.4183,-2.4234,-2.4245,-2.4248,-2.4276,-2.4259,-2.4277,-2.4272,-2.4255,-2.4257,-2.4305,-2.4308,-2.4277,-2.4361,-2.4325,-2.4332,-2.4357,-2.4368,-2.4376,-2.4373,-2.4235,0,0,0,0,0,-2.4211,-2.4237,-2.4238,-2.4283,-2.4289,-2.4282,-2.4296,-2.4285,-2.4296,-2.43,-2.4302,-2.4313,-2.4337,-2.4353,-2.4375,-2.4432,-2.4433,-2.4459,-2.4468,-2.4475,-2.4481,-2.451,-2.4522,-2.4401,-2.4401,-2.4401,0,0,-2.4245,-2.4249,-2.4266,-2.4292,-2.4299,-2.4327,-2.4286,-2.4317,-2.4337,-2.4305,-2.4345,-2.4348,-2.436,-2.441,-2.4433,-2.4414,-2.4515,-2.4482,-2.4488,-2.4489,-2.4517,-2.4528,-2.4539,-2.4405,-2.4404,-2.4404,0,0,-2.4319,-2.4326,-2.4364,-2.4372,-2.4384,-2.4379,-2.4389,-2.4395,-2.4395,-2.4436,-2.4413,-2.4437,-2.4479,-2.4488,-2.4498,-2.4579,-2.4559,-2.4587,-2.4632,-2.4662,-2.4671,-2.4679,-2.4707,-2.4717,-2.4593,-2.4593,-2.4594,0,-2.436,-2.4399,-2.4386,-2.4418,-2.443,-2.4403,-2.4442,-2.4451,-2.4469,-2.4478,-2.4458,-2.451,-2.4516,-2.4568,-2.4588,-2.4598,-2.4608,-2.4584,-2.4671,-2.4679,-2.4687,-2.4712,-2.4723,-2.4597,-2.4596,-2.4596,-2.4596,0,-2.4448,-2.4476,-2.4506,-2.4523,-2.4539,-2.4575,-2.4567,-2.4585,-2.4574,-2.4572,-2.4614,-2.4621,-2.4644,-2.4656,-2.4645,-2.4707,-2.4695,-2.4674,-2.4636,-2.4701,-2.4725,-2.4735,-2.4601,-2.46,-2.4599,-2.4598,0,0,-2.4549,-2.4561,-2.4571,-2.4579,-2.4591,-2.4613,-2.4648,-2.467,-2.4685,-2.47,-2.4728,-2.4766,-2.4746,-2.4758,-2.4748,-2.4774,-2.4837,-2.4749,-2.4749,-2.4763,-2.4904,-2.4918,-2.493,-2.4825,-2.4827,-2.4828,-2.4902,0,-2.4622,-2.468,-2.467,-2.4727,-2.4753,-2.4729,-2.476,-2.4771,-2.477,-2.4793,-2.4793,-2.4819,-2.4791,-2.4798,-2.4823,-2.4824,-2.4864,-2.4819,-2.485,-2.4851,-2.4844,-2.4942,-2.4957,-2.5027,-2.4912,-2.4913,-2.4914,0,-2.4713,-2.4731,-2.479,-2.4799,-2.4809,-2.4836,-2.4856,-2.4878,-2.4891,-2.4889,-2.4903,-2.4889,-2.4925,-2.489,-2.4938,-2.4907,-2.492,-2.4923,-2.4925,-2.4925,-2.4884,-2.4943,-2.5049,-2.5058,-2.4929,-2.4928,-2.4927,0,-2.4779,-2.4818,-2.4858,-2.4866,-2.4878,-2.4897,-2.4903,-2.4913,-2.4928,-2.4946,-2.4955,-2.4978,-2.4989,-2.5007,-2.5,-2.4975,-2.505,-2.5014,-2.5048,-2.5048,-2.5062,-2.5061,-2.5169,-2.5075,-2.5075,-2.5075,-2.5075,0,-2.4859,-2.4896,-2.4888,-2.4912,-2.4954,-2.4943,-2.4984,-2.4987,-2.4997,-2.5022,-2.5005,-2.5029,-2.5019,-2.5043,-2.5038,-2.5078,-2.5084,-2.5083,-2.5081,-2.5083,-2.5083,-2.5089,-2.5083,-2.5078,-2.5077,-2.5076,-2.5076,0,-2.4937,-2.4934,-2.4976,-2.4984,-2.4987,-2.5017,-2.5023,-2.5047,-2.5046,-2.5079,-2.5086,-2.5085,-2.5112,-2.5108,-2.5138,-2.5135,-2.5184,-2.5178,-2.518,-2.5177,-2.5211,-2.5207,-2.5324,-2.5339,-2.5238,-2.5239,-2.524,0,-2.4987,-2.5015,-2.5026,-2.5042,-2.5049,-2.5074,-2.5089,-2.508,-2.5096,-2.5114,-2.5135,-2.5161,-2.5181,-2.5226,-2.5228,-2.5252,-2.5244,-2.5283,-2.5247,-2.5248,-2.5242,-2.5239,-2.5241,-2.5289,-2.5291,-2.5292,-2.5292,0,-2.5076,-2.5073,-2.5094,-2.5116,-2.5134,-2.515,-2.5165,-2.5179,-2.5172,-2.5192,-2.5219,-2.5235,-2.5266,-2.5292,-2.5314,-2.5321,-2.5305,-2.5305,-2.5313,-2.5314,-2.5313,-2.5312,-2.5196,-2.5301,-2.53,-2.5299,-2.5299,-2.5299,-2.514,-2.5163,-2.5175,-2.52,-2.521,-2.5225,-2.5247,-2.525,-2.5272,-2.5297,-2.5291,-2.5322,-2.5336,-2.5364,-2.5373,-2.5398,-2.5383,-2.5396,-2.5399,-2.5402,-2.5405,-2.5312,-2.5402,-2.5402,-2.5402,-2.5402,-2.5402,0,-2.5226,-2.5232,-2.5255,-2.5276,-2.5296,-2.5282,-2.5298,-2.5315,-2.5343,-2.5356,-2.5376,-2.5409,-2.5434,-2.5439,-2.5464,-2.5482,-2.5476,-2.5489,-2.5486,-2.5487,-2.5418,-2.5406,-2.5493,-2.5493,-2.5493,-2.5493,-2.5493,-2.5493,-2.5272,-2.5311,-2.531,-2.5354,-2.5361,-2.539,-2.5401,-2.5414,-2.5425,-2.5461,-2.5482,-2.5486,-2.5496,-2.5522,-2.5544,-2.5546,-2.5554,-2.557,-2.5568,-2.5502,-2.5492,-2.5483,-2.5473,-2.5572,-2.5572,-2.5635,-2.5635,-2.5636]},{"header":{"parameterUnit":"m.s-1","parameterCategory":1,"la1":30.2991,"la2":30.254,"lo1":-89.0895,"lo2":-89.0444,"dy":0.0017,"dx":0.0017,"nx":28,"ny":28,"refTime":"2024-03-31T03:00:00:Z","depth":0,"parameterNumber":3,"parameterNumberName":"V-component_of_WINDS"},"data":[0,0,0,0,0,0,0,0,0,0,0,0,0,0,0,0,0,0,0,0,0,0,0,0,0,0,0,0,0,0,0,0,0,0,0,0,0,0,0,0,0,0,0,0,0,0,0,0,0,0,0,0,0,0,0,0,0,0,3.4067,3.4067,0,3.4039,3.4039,3.4038,3.4078,3.408,3.4081,3.4082,3.4049,3.4046,3.4044,0,0,0,0,0,0,0,0,0,0,0,0,0,3.4151,3.4149,3.4067,3.4066,3.4066,3.4039,3.4039,3.4038,3.4078,3.408,3.4081,3.4083,3.4049,3.4047,3.4044,0,0,0,0,0,0,0,0,0,0,0,0,0,3.4118,3.4149,3.4067,3.4083,3.4084,3.4039,3.4039,3.4038,3.4078,3.408,3.4082,3.4084,3.405,3.4047,3.4044,3.398,0,0,3.4033,3.4032,0,0,0,0,0,0,0,0,3.412,3.4115,3.4081,3.4082,3.4083,3.4064,3.4056,3.4018,3.4077,3.408,3.4082,3.4085,3.4052,3.4048,3.4038,3.3979,3.3977,3.4033,3.4031,3.403,3.4029,0,0,0,0,0,0,0,3.4122,3.4116,3.4056,3.408,3.4082,3.409,3.4088,3.4049,3.4054,3.408,3.4083,3.4079,3.4053,3.4041,3.4038,3.3977,3.4033,3.403,3.4028,3.4027,3.3866,3.3864,0,0,0,0,0,0,3.4123,3.4118,3.4057,3.4055,3.4107,3.4087,3.4084,3.4068,3.4055,3.4055,3.4077,3.4081,3.4046,3.4042,3.4037,3.3963,3.403,3.4027,3.4025,3.3868,3.3865,3.3863,0,0,0,0,0,0,3.4125,3.4117,3.4058,3.4087,3.408,3.4083,3.4065,3.4066,3.4055,3.4053,3.4053,3.4065,3.4048,3.4041,3.3995,3.3963,3.4025,3.4022,3.3871,3.3867,3.3864,3.3815,0,0,0,0,0,0,3.4127,3.4117,3.4094,3.4086,3.4079,3.4017,3.4063,3.4064,3.405,3.4055,3.4042,3.4041,3.4049,3.4,3.3992,3.3959,3.4019,3.3874,3.3869,3.3865,3.3819,3.381,3.3802,0,0,0,0,0,3.413,3.408,3.4093,3.4085,3.405,3.4015,3.4011,3.4022,3.4047,3.4023,3.4022,3.4042,3.3967,3.3995,3.3986,3.3952,3.3876,3.387,3.3865,3.3823,3.3812,3.3802,0,0,0,0,0,0,3.4081,3.4079,3.4093,3.4039,3.4027,3.4022,3.3992,3.4009,3.3988,3.3993,3.4006,3.4003,3.3954,3.3948,3.3978,3.3891,3.3926,3.3919,3.3896,3.3886,3.3877,3.388,3.4017,0,0,0,0,0,3.4064,3.4038,3.4037,3.3989,3.3983,3.3989,3.3974,3.3984,3.3971,3.3966,3.3961,3.3947,3.3921,3.3903,3.3878,3.3819,3.3817,3.3791,3.3783,3.3776,3.3769,3.3739,3.3728,3.3846,3.3846,3.3846,0,0,3.4029,3.4024,3.4006,3.398,3.3972,3.3943,3.3984,3.3951,3.3931,3.396,3.3917,3.3913,3.3898,3.3845,3.3822,3.3839,3.3737,3.3769,3.3764,3.3761,3.3733,3.3722,3.3712,3.3842,3.3843,3.3844,0,0,3.395,3.3944,3.3905,3.3897,3.3885,3.389,3.388,3.3873,3.3872,3.3829,3.3852,3.3826,3.378,3.3769,3.3757,3.3677,3.3695,3.3669,3.3624,3.3595,3.3585,3.3577,3.355,3.354,3.3662,3.3662,3.3662,0,3.3907,3.3867,3.3882,3.3849,3.3837,3.3865,3.3826,3.3816,3.3796,3.3787,3.3807,3.3752,3.3743,3.3689,3.367,3.3659,3.3649,3.367,3.3586,3.3578,3.357,3.3544,3.3534,3.3659,3.366,3.366,3.366,0,3.3815,3.3787,3.3757,3.374,3.3724,3.3688,3.3697,3.3679,3.3691,3.3693,3.3649,3.3641,3.3616,3.3604,3.3613,3.3552,3.3563,3.3584,3.3619,3.3556,3.3532,3.3522,3.3655,3.3656,3.3657,3.3658,0,0,3.3704,3.3698,3.3687,3.368,3.367,3.3648,3.3613,3.3592,3.3577,3.3562,3.3533,3.3495,3.3515,3.3502,3.3511,3.3485,3.3424,3.351,3.3509,3.3495,3.3356,3.3342,3.333,3.3436,3.3434,3.3432,3.3358,0,3.3627,3.3569,3.3583,3.3526,3.35,3.3528,3.3497,3.3488,3.3489,3.3467,3.3468,3.3441,3.3469,3.3462,3.3437,3.3437,3.3396,3.3442,3.3409,3.3407,3.3413,3.3317,3.33,3.3231,3.3349,3.3347,3.3346,0,3.3529,3.3514,3.3455,3.3452,3.3441,3.3414,3.3396,3.3375,3.3365,3.3367,3.3354,3.3369,3.3334,3.337,3.3322,3.3353,3.334,3.3338,3.3335,3.3333,3.3373,3.3313,3.3209,3.3199,3.3331,3.3332,3.3333,0,3.3456,3.342,3.3381,3.3375,3.3369,3.335,3.3346,3.3338,3.3325,3.3308,3.33,3.3279,3.3267,3.325,3.3259,3.3284,3.321,3.3246,3.3211,3.3211,3.3195,3.3196,3.3088,3.3185,3.3185,3.3185,3.3185,0,3.3369,3.3332,3.3349,3.3324,3.3284,3.33,3.3259,3.3258,3.3251,3.3227,3.3248,3.3225,3.3237,3.3214,3.322,3.3181,3.3175,3.3176,3.3178,3.3175,3.3175,3.3167,3.3172,3.3182,3.3183,3.3184,3.3184,0,3.328,3.329,3.3249,3.3249,3.3247,3.3218,3.3217,3.3194,3.3198,3.3167,3.316,3.3165,3.314,3.3147,3.3118,3.3123,3.3073,3.3081,3.3077,3.308,3.3045,3.3049,3.2929,3.2915,3.302,3.3019,3.3018,0,3.3225,3.3198,3.3195,3.3181,3.3177,3.3154,3.3142,3.3156,3.3142,3.313,3.3108,3.3085,3.3068,3.3025,3.3026,3.3004,3.3012,3.2972,3.3009,3.3007,3.3013,3.3016,3.3013,3.2965,3.2964,3.2963,3.2962,0,3.3126,3.3133,3.3115,3.3099,3.3084,3.3071,3.3061,3.3048,3.3062,3.3044,3.302,3.3007,3.2979,3.2956,3.2937,3.2932,3.2949,3.295,3.2941,3.2938,3.2938,3.2939,3.3058,3.2953,3.2954,3.2954,3.2955,3.2955,3.3053,3.3031,3.3027,3.3006,3.3,3.299,3.297,3.2972,3.2953,3.2933,3.2942,3.2914,3.2906,3.2882,3.2875,3.2853,3.2868,3.2855,3.2852,3.2848,3.2845,3.2941,3.2849,3.2849,3.285,3.285,3.285,0,3.2956,3.2956,3.2937,3.2923,3.2907,3.2927,3.2916,3.2901,3.2877,3.2869,3.2852,3.2824,3.2803,3.2802,3.2782,3.2764,3.2772,3.2758,3.276,3.2759,3.2832,3.2842,3.2753,3.2753,3.2753,3.2753,3.2753,3.2753,3.2904,3.2869,3.2875,3.2837,3.2836,3.2811,3.2803,3.2794,3.2788,3.2757,3.274,3.2741,3.2736,3.2716,3.2696,3.2697,3.2689,3.2673,3.2676,3.2744,3.2754,3.2763,3.2773,3.2671,3.267,3.2606,3.2605,3.2605]}]]